CDT,Max TemperatureF,Mean TemperatureF,Min TemperatureF,Max Dew PointF,MeanDew PointF,Min DewpointF,Max Humidity, Mean Humidity, Min Humidity, Max Sea Level PressureIn, Mean Sea Level PressureIn, Min Sea Level PressureIn, Max VisibilityMiles, Mean VisibilityMiles, Min VisibilityMiles, Max Wind SpeedMPH, Mean Wind SpeedMPH, Max Gust SpeedMPH,PrecipitationIn, CloudCover, Events, WindDirDegrees
2013-10-1,87,75,64,70,65,57,93,76,44,29.97,29.90,29.84,10,9,5,10,3,17,0.00,3,,153
2013-10-2,89,80,73,71,70,64,93,78,46,30.01,29.93,29.85,10,9,5,10,7,21,0.00,5,Rain,153
2013-10-3,88,80,73,71,69,65,93,76,46,29.98,29.90,29.82,10,10,9,13,7,20,0.00,4,,165
2013-10-4,88,79,71,70,67,65,90,71,49,29.95,29.87,29.83,10,10,10,16,9,25,0.00,3,,172
2013-10-5,82,70,60,70,59,38,91,68,42,30.13,29.98,29.88,10,10,10,16,7,24,0.00,6,,7
2013-10-6,80,66,51,51,41,30,84,50,17,30.17,30.11,30.07,10,10,9,15,7,25,0.00,2,Rain-Thunderstorm,343
2013-10-7,84,67,50,45,40,36,74,44,18,30.19,30.12,30.05,10,10,10,7,1,,0.00,0,,45
2013-10-8,82,68,53,48,45,43,71,46,26,30.10,30.04,29.98,10,10,8,9,3,,0.00,0,,145
2013-10-9,81,69,57,58,53,47,81,59,39,30.07,30.01,29.96,10,10,8,12,4,,0.00,0,,161
2013-10-10,82,73,64,64,61,58,90,71,47,30.06,29.97,29.88,10,10,9,13,6,22,0.00,3,,159
2013-10-11,84,77,70,72,68,64,90,77,53,29.99,29.90,29.83,10,10,9,15,8,23,0.00,6,Rain,174
2013-10-12,89,80,72,72,70,67,93,79,48,30.09,29.99,29.90,10,9,5,15,6,26,0.00,6,Thunderstorm,149
2013-10-13,75,70,64,69,66,63,97,90,76,30.22,30.12,30.02,10,8,1,16,8,26,0.87,7,Rain-Thunderstorm,90
2013-10-14,79,74,70,71,70,67,97,89,66,30.13,30.03,29.92,10,8,2,10,6,,0.02,7,Rain,154
2013-10-15,79,67,54,69,65,52,93,87,69,30.07,29.98,29.89,10,9,2,15,8,23,0.08,7,Rain,184
2013-10-16,64,58,51,54,52,49,97,89,70,30.13,30.06,30.00,10,7,2,14,8,21,0.76,8,Rain,357
2013-10-17,73,60,48,50,46,41,83,63,36,30.14,30.07,29.99,10,10,10,7,4,,0.00,1,,27
2013-10-18,68,62,55,61,56,49,87,79,72,30.07,29.97,29.89,10,10,2,23,3,30,0.02,7,Rain,98
2013-10-19,64,54,44,50,42,35,86,68,36,30.22,30.14,30.08,10,10,10,16,11,26,0.00,3,,6
2013-10-20,73,57,42,48,44,39,89,64,41,30.10,30.01,29.91,10,10,10,13,3,20,0.00,0,,176
2013-10-21,75,65,55,63,58,47,90,74,56,30.00,29.95,29.92,10,10,8,15,4,22,0.00,6,,327
2013-10-22,75,62,50,52,43,34,83,58,24,30.15,30.12,30.10,10,10,10,12,8,18,0.00,1,,360
2013-10-23,80,65,50,46,42,37,80,52,23,30.19,30.13,30.09,10,10,10,8,3,,0.00,0,,256
2013-10-24,79,64,48,47,44,42,80,54,27,30.24,30.19,30.13,10,10,8,8,2,,0.00,0,,155
2013-10-25,75,64,53,58,53,47,86,69,51,30.34,30.26,30.22,10,10,10,9,3,,0.00,3,,106
2013-10-26,77,70,62,62,61,59,96,81,58,30.25,30.17,30.06,10,7,2,13,6,21,0.00,7,Rain,161
2013-10-27,70,65,60,64,60,57,100,87,65,30.17,30.09,30.02,10,9,2,14,6,20,0.07,7,Rain-Thunderstorm,352
2013-10-28,78,70,63,66,64,61,97,82,62,30.12,30.04,29.97,10,9,5,14,6,23,0.00,7,,153
2013-10-29,81,75,69,68,66,64,93,79,58,30.11,30.04,29.96,,,,15,10,28,0.00,7,,166
2013-10-30,79,74,70,72,70,66,97,88,72,30.06,29.94,29.82,10,10,10,15,7,20,0.01,7,Rain,168
2013-10-31,78,65,52,70,51,29,97,64,17,29.90,29.83,29.75,10,10,10,21,6,30,0.00,3,Rain,271